Flag for Norway Weather past 2 weeks in Kragerø, Norway

Now
39 °F

Chilly.


Feels Like: 31 °F
Forecast: 38 / 48 °F
Wind: 12 mph from Southwest

Location: Jomfruland Fyr

Current Time: Mar 5, 2015 at 5:06:59 PM

Latest Report: Mar 5, 2015 at 4:00 PM


Visibility: N/A

Pressure: 30.27 "Hg

Humidity: 86%

Dew point: 35 °F

Location of KragerøLocation

Historic Weather in Kragerø — Graph

°F

Kragerø temperature yesterday

Maximum temperature yesterday: 44 °F (at 1:00 PM)
Minimum temperature yesterday: 30 °F (at 6:00 AM)
Average temperature yesterday: 36 °F

Past Weeks' High & Low Weather Summary

 TemperatureHumidityPressure
High45 °F (Feb 18, 3:00 PM)96% (Feb 19, 9:00 AM)30.34 "Hg (Feb 19, 9:00 AM)
Low30 °F (Mar 4, 6:00 AM)41% (Mar 4, 1:00 PM)28.94 "Hg (Feb 23, 11:00 AM)
Average38 °F85%29.53 "Hg
* Reported Feb 18 3:00 PM — Mar 5 3:00 PM, Kragerø, Weather by CustomWeather, © 2015

Note: Actual official high and low records may vary slightly from our data, if they occured in-between our weather recording intervals... More about our weather records

Advertising

Kragerø weather history for previous 24 hours

 ConditionsComfort  
Time TempWeatherWind HumidityBarometerVisibility
3:00 PM
Thu, Mar 5
39 °FChilly.10 mph85%30.31 "HgN/A
2:00 PM40 °FQuite cool.6 mph77%30.31 "HgN/A
1:00 PM42 °FQuite cool.7 mph65%30.33 "HgN/A
12:00 PM43 °FQuite cool.7 mph58%30.34 "HgN/A
11:00 AM41 °FQuite cool.5 mph66%30.33 "HgN/A
10:00 AM40 °FQuite cool.3 mph64%30.32 "HgN/A
9:00 AM36 °FChilly.2 mph67%30.30 "HgN/A
8:00 AM35 °FChilly.3 mph70%30.30 "HgN/A
7:00 AM34 °FChilly.3 mph72%30.28 "HgN/A
6:00 AM33 °FChilly.2 mph73%30.28 "HgN/A
5:00 AM35 °FChilly.6 mph69%30.26 "HgN/A
2:00 AM35 °FChilly.5 mph76%30.22 "HgN/A
1:00 AM34 °FChilly.3 mph70%30.19 "HgN/A
12:00 AM36 °FChilly.2 mph63%30.18 "HgN/A
11:00 PM
Wed, Mar 4
33 °FChilly.1 mph66%30.16 "HgN/A
10:00 PM33 °FChilly.1 mph68%30.14 "HgN/A
9:00 PM36 °FChilly.2 mph63%30.11 "HgN/A
8:00 PM37 °FChilly.3 mph59%30.09 "HgN/A
7:00 PM37 °FChilly.2 mph67%30.06 "HgN/A
6:00 PM38 °FChilly.3 mph80%30.03 "HgN/A
5:00 PM39 °FChilly.5 mph78%30.00 "HgN/A
Weather by CustomWeather, © 2015

See weather overviewHow to use our weather pages